Location: Borderline Observatory
(42.7345°N, 72.8696°W)
Time: 04:27:34
(UTC-04:00)

Daily predictions for brighter satellites

Satellite Brightness Start Highest point End
(mag) Time Altitude Azimuth Time Altitude Azimuth Time Altitude Azimuth
Cosmos 1733 3.8 00:00:01 10° NNW 00:03:06 53° NW 00:03:06 53° NW
ALOS 2 2.8 00:07:04 62° ENE 00:07:04 62° ENE 00:11:16 10° N
Cosmos 1605 Rocket 3.9 00:01:32 10° N 00:07:38 77° E 00:08:50 59° SSE
Meteor 2-15 4.5 00:12:18 55° SE 00:13:13 61° E 00:19:11 10° NNE
SeaSat 1 2.5 00:13:54 63° E 00:14:26 68° ENE 00:19:22 10° NNW
Cosmos 1953 3.9 00:11:52 10° NNW 00:15:05 27° W 00:15:05 27° W
NOSS 3-1 (C) 4.0 00:08:47 10° NW 00:16:24 74° WSW 00:18:59 48° SSE
Lacrosse 5 1.7 00:17:43 85° SW 00:17:52 89° SE 00:22:58 10° NE
Cosmos 1378 4.1 00:20:39 46° N 00:20:39 46° N 00:23:23 10° N
Meteor 2-5 Rocket 3.7 00:20:16 64° S 00:21:15 89° E 00:27:14 10° N
Cosmos 2360 Rocket 2.6 00:16:03 10° NNW 00:21:39 57° ENE 00:22:52 47° ESE
Cosmos 1980 Rocket 3.8 00:18:12 10° NW 00:22:14 20° W 00:22:51 20° WSW
ISS -1.0 00:19:56 10° NW 00:22:21 19° N 00:24:47 10° NE
SME Rocket 3.9 00:22:22 49° WSW 00:22:26 49° WSW 00:26:31 10° NNW
Cosmos 2251 Rocket 3.8 00:21:41 51° WSW 00:22:45 62° WNW 00:28:06 10° NNE
Cosmos-2242 3.6 00:20:36 10° NNW 00:24:20 48° WNW 00:24:20 48° WNW
COSMOS 2428 4.2 00:20:09 10° N 00:25:12 31° NE 00:27:56 21° E
Cosmos 2098 Rocket 3.5 00:26:20 10° NNW 00:31:02 72° W 00:31:25 69° SW
Cosmos 2322 Rocket 2.6 00:28:29 10° NW 00:33:56 47° WSW 00:34:12 47° WSW
Cosmos 2084 Rocket 4.2 00:35:59 45° NE 00:35:59 45° NE 00:38:47 10° NE
Meteor 2-15 Rocket 4.3 00:35:03 64° SSE 00:36:00 78° E 00:42:06 10° N
Meteor 1-16 Rocket 4.1 00:31:19 10° NNW 00:36:42 70° W 00:37:09 67° SW
USA 234 3.9 00:34:14 10° ESE 00:40:35 54° NNE 00:46:55 10° NW
Lacrosse 5 rocket 2.0 00:36:26 10° NW 00:40:09 54° WNW 00:40:09 54° WNW
CZ-4B R/B 3.5 00:43:14 22° NNE 00:43:14 22° NNE 00:44:51 10° N
CZ-4C R/B 4.2 00:46:04 45° NNE 00:46:04 45° NNE 00:48:48 10° N
Cosmos 1459 Rocket 4.3 00:39:07 10° N 00:45:25 61° E 00:46:56 48° SE
Cosmos 2221 3.3 00:42:16 10° N 00:46:08 45° ENE 00:46:08 45° ENE
ATLAS 2AS CENTAUR R/B 3.9 00:41:46 10° NNW 00:49:32 46° NE 00:56:32 11° ESE
NOSS 3-1 (A) 4.1 00:42:13 10° NW 00:49:47 62° WSW 00:51:52 49° S
Cosmos 1707 4.4 00:51:28 26° WNW 00:51:28 26° WNW 00:54:23 10° NNW
CZ-2C R/B 3.1 00:46:36 10° N 00:52:04 55° WNW 00:53:10 47° WSW
Geosat 4.2 00:48:04 10° NE 00:52:52 58° ESE 00:52:52 58° ESE
CZ-3B R/B 4.4 00:52:52 61° SSW 00:53:53 79° SE 01:10:41 10° NE
Cosmos 2333 Rocket 3.9 00:52:35 10° N 00:57:24 27° NE 01:01:22 13° ESE
Meteor 1-24 Rocket 3.8 00:56:31 61° SW 00:57:32 76° W 01:03:37 10° N
Cosmos 2219 Rocket 3.5 00:59:29 10° N 01:04:43 36° ENE 01:07:42 22° ESE
Cosmos 2297 Rocket 4.4 01:03:53 11° ESE 01:04:45 11° E 01:06:31 10° ENE
Cosmos 1802 Rocket 4.0 00:59:22 10° N 01:05:40 74° E 01:07:01 55° SE
Cosmos 2016 Rocket 4.2 01:02:12 10° N 01:08:34 65° E 01:10:13 48° SE
Cosmos 1076 Rocket 4.1 01:09:52 51° ENE 01:09:52 51° ENE 01:13:39 10° NNE
Cosmos 2100 Rocket 3.9 01:03:22 10° N 01:09:33 83° W 01:10:40 62° S
Meteor 2-17 Rocket 4.3 01:04:26 10° N 01:10:35 88° E 01:11:43 62° SSE
Cosmos 1674 3.7 01:15:42 44° NE 01:15:42 44° NE 01:18:39 10° NNE
Cosmos 1689 Rocket 4.3 01:20:55 26° NNW 01:20:55 26° NNW 01:22:25 10° NNW
Cosmos 2237 Rocket 3.8 01:19:23 10° N 01:24:20 30° NE 01:28:48 12° ESE
Cosmos 1726 3.7 01:21:39 10° NNE 01:24:49 29° ENE 01:24:49 29° ENE
SL-16 R/B 4.0 01:22:11 10° WNW 01:25:26 17° W 01:25:26 17° W
Cosmos 2061 Rocket 4.0 01:22:20 10° NNW 01:28:33 71° W 01:29:44 57° SSW
SL-8 R/B 3.7 01:31:59 74° E 01:31:59 74° E 01:36:25 10° ENE
Cosmos 1300 4.0 01:33:21 10° N 01:36:51 33° ENE 01:36:53 33° ENE
Cosmos 2123 Rocket 4.0 01:35:29 54° SSE 01:36:56 76° E 01:43:07 10° N
Cosmos 407 Rocket 3.4 01:38:24 66° SE 01:38:48 69° ESE 01:43:56 10° NNE
Cosmos 2227 Rocket 3.2 01:41:02 30° ESE 01:42:01 32° ESE 01:46:59 10° NE
Helios 1A Rocket 3.8 01:42:26 10° NNE 01:46:20 41° E 01:46:20 41° E
H-2A R/B 2.5 01:42:48 10° N 01:47:01 75° WNW 01:47:01 75° WNW
Cosmos 2228 Rocket 3.6 01:43:33 10° N 01:47:57 51° ENE 01:48:35 47° ESE
USA 267 4.3 01:42:33 10° NE 01:48:38 43° NNW 01:54:43 10° W
Cosmos 2233 Rocket 4.4 01:43:08 10° N 01:49:24 59° E 01:52:01 35° SE
SeaSat 1 4.5 01:53:41 15° W 01:53:41 15° W 01:55:25 10° WNW
Cosmos 676 Rocket 4.0 01:55:37 58° SSE 01:56:25 68° ESE 02:01:41 10° NNE
Meteor 1-21 Rocket 4.4 01:55:17 52° SW 01:56:34 66° WNW 02:02:24 10° N
Cosmos 1190 Rocket 4.0 01:57:46 58° WSW 01:58:40 71° WNW 02:03:59 10° NNE
ISS -1.7 01:56:12 10° NW 01:57:36 22° NW 01:57:36 22° NW
CZ-2D R/B 4.4 01:58:11 10° NE 02:01:06 15° E 02:03:59 10° SE
Lacrosse 5 3.8 01:57:14 10° W 02:01:26 25° NNW 02:05:39 10° NNE
Cosmos 1340 Rocket 4.2 02:02:01 29° WNW 02:02:01 29° WNW 02:05:10 10° NNW
Cosmos 1725 Rocket 4.0 01:57:28 10° NNW 02:03:46 69° W 02:05:28 49° SSW
Cosmos 2360 Rocket 3.7 02:01:02 10° NW 02:04:36 21° W 02:04:36 21° W
NOSS 0 Rocket 3.9 01:59:14 10° NNW 02:05:29 82° ENE 02:08:30 33° SSE
Cosmos 2219 3.5 02:04:29 43° WSW 02:05:57 56° WNW 02:11:29 10° NNE
Cosmos 1328 3.8 02:09:34 77° E 02:09:34 77° E 02:13:29 10° N
COSMOS 2428 3.1 02:04:13 10° NW 02:09:37 43° WSW 02:09:55 43° WSW
Cosmos 1408 Rocket 4.0 02:10:56 47° W 02:10:59 47° WNW 02:15:12 10° N
Cosmos 1356 Rocket 3.7 02:11:59 52° WNW 02:11:59 52° WNW 02:15:49 10° N
Cosmos 2082 4.2 02:11:45 39° SSE 02:13:14 49° ESE 02:18:37 10° NE
ERBS 3.2 02:17:31 47° NNW 02:17:31 47° NNW 02:20:31 10° NE
Cosmos 1500 Rocket 3.6 02:17:41 61° SSE 02:18:16 71° E 02:22:42 10° NNE
Cosmos 1766 Rocket 4.4 02:19:02 37° W 02:19:12 37° WNW 02:23:16 10° N
Cosmos 1455 4.3 02:16:06 10° NNE 02:19:17 24° ENE 02:21:16 16° ESE
SL-08 R/B 4.1 02:18:03 26° SE 02:20:33 52° ENE 02:25:23 10° N
USA 234 3.3 02:21:19 37° S 02:23:35 51° SW 02:29:57 10° WNW
PSLV R/B 3.7 02:24:18 77° SW 02:24:28 80° WSW 02:28:33 10° NNW
Lacrosse 4 Rocket 3.6 02:26:30 14° ESE 02:27:32 15° ESE 02:29:53 10° ENE
ATLAS 3B CENTAUR R/B 4.4 02:07:59 10° WSW 02:28:15 41° SSW 02:36:16 10° SE
ADEOS Rocket 4.3 02:21:12 10° NNE 02:28:21 44° E 02:33:37 19° SSE
Meteor 1-11 4.3 02:27:04 40° S 02:29:09 73° E 02:34:55 10° NNE
Meteor 1-27 4.4 02:24:20 10° N 02:30:10 75° E 02:33:11 30° SSE
CZ-3A R/B 4.2 02:30:56 10° NNE 02:32:04 12° NE 02:33:40 10° ENE
Meteor 2-2 Rocket 4.4 02:27:24 10° NNW 02:32:52 53° W 02:34:13 43° SW
DELTA 2 R/B (1) 3.9 02:34:21 41° S 02:34:50 42° SSE 02:40:03 10° E
NOSS 2-1 (D) 3.1 02:34:53 74° SSW 02:35:13 88° SE 02:39:30 10° NE
NOSS 2-1 (C) 3.1 02:35:03 75° SSW 02:35:22 87° SE 02:39:37 10° NE
Cosmos 1626 2.6 02:35:05 47° SE 02:35:35 51° E 02:39:14 10° NNE
BREEZE-M DEB 3.8 02:35:29 40° SSE 02:35:41 40° SSE 02:38:28 10° E
PSLV R/B 4.3 02:33:14 10° N 02:37:07 36° WNW 02:37:38 35° W
Cosmos 1515 Rocket 3.6 02:33:36 10° NNW 02:37:57 58° W 02:38:25 55° WSW
Cosmos 1242 Rocket 4.4 02:36:00 10° NW 02:37:46 20° WNW 02:37:46 20° WNW
Cosmos 1743 Rocket 3.9 02:39:35 45° WSW 02:40:12 48° WNW 02:44:30 10° N
IRS-P3 4.1 02:35:09 10° NNE 02:40:31 83° ESE 02:42:31 40° S
Cosmos 614 Rocket 3.9 02:39:00 46° SSW 02:40:38 88° ESE 02:45:54 10° NNE
ATLAS 2AS CENTAUR R/B 3.2 02:33:03 10° NW 02:40:40 49° WSW 02:43:52 32° S
Cosmos 2333 Rocket 2.4 02:36:26 10° NW 02:41:56 50° WSW 02:43:19 41° SSW
Cosmos 1140 Rocket 3.5 02:42:01 44° SW 02:43:38 71° WNW 02:48:51 10° NNE
Cosmos 2297 Rocket 2.1 02:45:42 40° SSW 02:47:52 87° ESE 02:53:32 10° NNE
Cosmos 2219 Rocket 2.8 02:43:30 10° NW 02:48:37 36° WSW 02:49:22 34° WSW
NOSS 3-3 (A) 4.4 02:45:42 29° WSW 02:48:52 57° NW 02:55:31 10° NNE
NOSS 3-3 (C) 4.4 02:45:49 29° WSW 02:48:58 57° NW 02:55:36 10° NNE
Cosmos 1980 3.8 02:44:26 10° NNW 02:50:00 57° WSW 02:52:08 36° SSW
Cosmos 2151 3.1 02:51:46 50° SW 02:52:32 59° W 02:56:43 10° N
Cosmos 1703 3.1 02:52:13 57° S 02:52:59 89° ENE 02:56:56 10° N
Aureole 2 Rocket 3.0 02:50:26 10° NNW 02:54:23 49° WSW 02:54:38 49° WSW
NOSS 2-1 (E) 3.6 02:57:17 44° WSW 02:58:16 61° NW 03:02:38 10° NNE
Cosmos 1850 Rocket 3.9 02:56:14 38° SSW 02:58:17 89° WNW 03:03:30 10° NNE
Cosmos 1726 4.1 02:57:30 10° NW 02:59:25 17° WNW 02:59:25 17° WNW
Sich 1 4.2 02:57:32 20° SSE 03:00:05 38° E 03:04:09 10° NNE
Cosmos 1633 Rocket 4.5 02:57:22 16° SE 03:00:12 32° E 03:04:05 10° NNE
NPP 3.7 02:57:35 10° N 03:02:57 69° WNW 03:05:23 33° SSW
SL-16 R/B 2.6 02:58:19 12° SSE 03:04:03 78° ENE 03:10:16 10° NNW
Cosmos 1741 Rocket 4.0 03:02:50 35° SSW 03:05:08 81° WNW 03:10:31 10° NNE
Cosmos 1356 3.3 03:07:02 54° SSW 03:07:46 87° WNW 03:11:18 10° N
Cosmos 2237 Rocket 2.6 03:03:13 10° NW 03:08:31 43° WSW 03:10:34 31° SSW
SL-16 R/B 2.2 03:04:36 10° NNW 03:10:20 84° ENE 03:16:00 10° SSE
Cosmos 1151 Rocket 3.8 03:06:32 10° NNW 03:10:28 34° W 03:11:08 32° WSW
UNKNOWN OBJECT B 4.5 03:10:52 10° NE 03:14:23 29° E 03:17:20 13° SSE
ADEOS 3.9 03:10:24 10° NNE 03:15:37 64° ESE 03:19:05 21° S
CBERS-1 4.3 03:12:53 10° N 03:17:52 54° WNW 03:20:19 28° SW
Resurs 1-4 Rocket 2.2 03:14:49 10° NNE 03:20:09 78° ESE 03:23:38 22° S
Cosmos 1570 Rocket 4.1 03:15:43 10° NNW 03:20:57 56° WSW 03:24:21 21° S
Cosmos 2034 Rocket 4.0 03:15:41 10° N 03:22:04 83° W 03:27:38 14° S
ARIANE 5 R/B 2.5 03:20:00 10° NNE 03:25:07 80° ESE 03:28:27 22° S
Cosmos 2227 Rocket 3.0 03:22:51 22° WSW 03:25:57 39° WNW 03:31:15 10° N
Cosmos 2058 4.3 03:32:09 21° W 03:33:22 24° WNW 03:36:47 10° NNW
COBE Rocket 3.8 03:32:11 10° N 03:36:48 65° WNW 03:39:38 23° SSW
UNK 3.9 03:34:34 21° S 03:37:31 55° W 03:42:04 10° NNW
Cosmos 1707 Rocket 3.6 03:34:15 10° NNW 03:38:35 62° W 03:41:37 19° S
CZ-2D R/B 2.1 03:36:27 10° N 03:41:40 70° WNW 03:45:23 19° SSW
Tsikada Rocket 4.0 03:36:41 17° S 03:41:50 81° W 03:48:18 10° N
Cosmos 2263 Rocket 4.4 03:41:51 10° SE 03:45:44 20° E 03:49:36 10° NE
Cosmos 2242 Rocket 3.8 03:41:24 10° N 03:45:54 75° E 03:50:25 10° SSE
MOZ.5/SAFIR/RUBIN 5/SL-8 4.0 03:41:35 10° SSE 03:46:19 77° ENE 03:51:07 10° N
Cosmos 1933 4.2 03:47:19 10° N 03:51:20 51° E 03:55:20 10° SSE
Meteor 2-10 Rocket 4.3 03:47:17 10° N 03:52:10 50° ENE 03:57:03 10° SSE
Cosmos 1666 Rocket 3.9 03:50:56 20° SSW 03:53:47 52° W 03:58:09 10° N
BREEZE-M R/B 4.1 03:49:02 17° SSW 03:54:11 44° SSE 03:57:56 10° ENE
Cosmos 1455 3.6 03:51:45 10° NW 03:54:52 23° W 03:56:14 19° WSW
Cosmos 1486 Rocket 4.4 03:51:00 12° S 03:55:49 62° ESE 04:01:00 10° NNE
Cosmos 1862 Rocket 4.0 03:53:18 10° N 03:57:36 62° E 04:01:52 10° SSE
Cosmos 841 Rocket 4.1 03:54:46 10° NNW 04:00:01 61° ENE 04:05:13 10° SSE
USA 161 1.5 03:59:30 10° SSE 04:01:24 47° ENE 04:03:17 10° N
Cosmos 1933 Rocket 3.8 03:59:12 10° S 04:03:38 73° E 04:08:06 10° NNE
Lacrosse 4 Rocket 1.8 04:02:51 18° SW 04:05:46 51° WNW 04:09:55 10° NNE
Cosmos 1400 Rocket 3.6 04:03:50 10° S 04:07:36 49° E 04:11:27 10° NNE
Cosmos 468 Rocket 4.2 04:03:41 10° NNW 04:08:41 48° WSW 04:13:35 10° S
Cosmos 1626 4.5 04:10:22 10° W 04:11:18 11° WNW 04:12:13 10° NW
Cosmos 371 Rocket 3.2 04:07:14 10° NNW 04:12:04 78° WSW 04:16:51 10° SSE
ADEOS Rocket 4.2 04:06:47 10° N 04:13:41 43° WNW 04:20:35 11° SW
Cosmos 2285 Rocket 4.2 04:13:19 10° NNW 04:19:39 79° ENE 04:25:58 10° SSE
DELTA 2 R/B (1) 3.6 04:15:25 10° WSW 04:20:56 64° S 04:26:25 10° E
Cosmos 1634 Rocket 4.0 04:21:34 10° NNW 04:27:41 65° W 04:33:45 10° S
Cosmos 2279 Rocket 4.2 04:21:53 10° N 04:28:07 77° E 04:34:20 10° SSE
Cosmos 1763 Rocket 3.6 04:24:15 10° NNW 04:29:24 59° WSW 04:34:27 10° S
MOS 1-B 4.4 04:23:36 10° NNE 04:29:25 90° ESE 04:35:12 10° SSW
CZ-2D R/B 4.0 04:26:29 10° N 04:30:21 43° WNW 04:34:15 10° SW
Cosmos 1818 3.8 04:25:04 10° NNW 04:30:33 77° NE 04:35:58 10° SE
RESURS DK-1 3.9 04:26:58 10° NNW 04:30:57 42° ENE 04:34:54 10° SE
Okean O Rocket 2.5 04:27:19 10° NNE 04:31:32 49° E 04:35:45 10° S
NOSS 3-4 (A) 4.2 04:25:47 10° NW 04:32:21 42° WSW 04:39:19 10° S
NOSS 3-4 (C) 4.2 04:25:52 10° NW 04:32:28 42° WSW 04:39:26 10° S
Cosmos 2297 Rocket 4.1 04:29:03 10° W 04:32:41 17° NW 04:36:20 10° N
Cosmos 1814 Rocket 4.5 04:28:12 10° NNW 04:33:12 42° WSW 04:38:12 10° S
Cosmos 1603 3.8 04:27:39 10° NNW 04:33:15 59° WSW 04:38:48 10° S
GP-B 3.2 04:29:44 10° N 04:34:12 86° E 04:38:39 10° S
Cosmos 1503 Rocket 4.3 04:29:44 10° S 04:35:00 72° ESE 04:40:15 10° NNE
Cosmos 1470 Rocket 4.1 04:34:23 10° SSW 04:38:27 40° WNW 04:42:33 10° N
CZ-4B R/B 3.5 04:35:05 10° NNE 04:39:28 65° E 04:43:38 10° S
USA 102 2.9 04:38:26 10° NNE 04:41:54 84° WNW 04:43:54 10° SSW
PSLV R/B 3.8 04:41:13 10° NNE 04:45:16 87° W 04:49:10 10° SSW
Cosmos 304 Rocket 4.2 04:40:26 10° NNW 04:45:16 70° ENE 04:50:03 10° SSE
